When you browse on this site, cookies collect data to enhance your experience and personalize the content and advertising you see.
Visit our Privacy Policy to learn more. By continuing to use the site, you agree to this use of cookies and data.
  • In Hungary
  • List of Countries
  • For 7 days
  • Water Temperature
  • Satellite Maps
  • Weather Map
  • News
  • Weather Widgets
  • user-avatar
    Login

    Hourly Weather Curtea de Arges

    Today, 21 March, Thursday

    Time Temperature Precipitation Wind Pressure Humidity
    00:00 +8°C° 0.3 mm 1 mps 726 mmHg 85%
    01:00 +7°C° 0.3 mm 1 mps 726 mmHg 85%
    02:00 +7°C° 0.3 mm 1 mps 726 mmHg 85%
    03:00 +7°C° 0.1 mm 1 mps 726 mmHg 85%
    04:00 +6°C° 0.1 mm 1 mps 726 mmHg 85%
    05:00 +6°C° 0.1 mm 1 mps 726 mmHg 85%
    06:00 +6°C° 0.1 mm 1 mps 727 mmHg 84%
    07:00 +6°C° 0.1 mm 1 mps 727 mmHg 84%
    08:00 +6°C° 0.1 mm 1 mps 727 mmHg 83%
    09:00 +7°C° 0 mm 1 mps 727 mmHg 80%
    10:00 +7°C° 0 mm 1 mps 727 mmHg 76%
    11:00 +7°C° 0 mm 2 mps 727 mmHg 73%
    12:00 +8°C° 0 mm 2 mps 727 mmHg 69%
    13:00 +9°C° 0 mm 2 mps 727 mmHg 65%
    14:00 +10°C° 0 mm 2 mps 727 mmHg 61%
    15:00 +10°C° 0 mm 2 mps 726 mmHg 61%
    16:00 +12°C° 0 mm 2 mps 726 mmHg 60%
    17:00 +12°C° 0 mm 2 mps 726 mmHg 60%
    18:00 +9°C° 0 mm 2 mps 726 mmHg 66%
    19:00 +8°C° 0 mm 2 mps 726 mmHg 72%
    20:00 +8°C° 0 mm 1 mps 726 mmHg 79%
    21:00 +7°C° 0 mm 1 mps 726 mmHg 78%
    22:00 +7°C° 0 mm 1 mps 726 mmHg 77%
    23:00 +6°C° 0 mm 1 mps 726 mmHg 76%

    Tomorrow, 22 March, Friday

    Time Temperature Precipitation Wind Pressure Humidity
    00:00 +6°C° 0 mm 1 mps 726 mmHg 74%
    01:00 +6°C° 0 mm 1 mps 726 mmHg 72%
    02:00 +5°C° 0 mm 1 mps 726 mmHg 70%
    03:00 +5°C° 0 mm 1 mps 726 mmHg 68%
    04:00 +5°C° 0 mm 1 mps 726 mmHg 67%
    05:00 +5°C° 0 mm 1 mps 725 mmHg 66%
    06:00 +6°C° 0 mm 1 mps 726 mmHg 64%
    07:00 +7°C° 0 mm 1 mps 726 mmHg 62%
    08:00 +8°C° 0 mm 1 mps 726 mmHg 59%
    09:00 +10°C° 0 mm 1 mps 726 mmHg 53%
    10:00 +12°C° 0 mm 1 mps 726 mmHg 47%
    11:00 +14°C° 0 mm 1 mps 726 mmHg 41%
    12:00 +15°C° 0 mm 1 mps 726 mmHg 39%
    13:00 +16°C° 0 mm 1 mps 725 mmHg 38%
    14:00 +18°C° 0 mm 1 mps 725 mmHg 36%
    15:00 +16°C° 0 mm 1 mps 725 mmHg 38%
    16:00 +16°C° 0 mm 1 mps 724 mmHg 39%
    17:00 +16°C° 0 mm 1 mps 724 mmHg 41%
    18:00 +14°C° 0 mm 1 mps 724 mmHg 48%
    19:00 +12°C° 0 mm 1 mps 724 mmHg 55%
    20:00 +10°C° 0 mm 1 mps 723 mmHg 62%
    21:00 +10°C° 0 mm 1 mps 723 mmHg 63%
    22:00 +8°C° 0 mm 2 mps 723 mmHg 64%
    23:00 +7°C° 0 mm 2 mps 724 mmHg 65%

    Day after tomorrow, 23 March, Saturday

    Time Temperature Precipitation Wind Pressure Humidity
    00:00 +7°C° 0 mm 2 mps 723 mmHg 65%
    01:00 +7°C° 0 mm 2 mps 723 mmHg 65%
    02:00 +8°C° 0 mm 1 mps 723 mmHg 66%
    03:00 +7°C° 0 mm 1 mps 723 mmHg 67%
    04:00 +7°C° 0 mm 1 mps 723 mmHg 68%
    05:00 +7°C° 0 mm 1 mps 723 mmHg 70%
    06:00 +8°C° 0 mm 1 mps 723 mmHg 68%
    07:00 +8°C° 0 mm 1 mps 723 mmHg 67%
    08:00 +8°C° 0 mm 0 mps 723 mmHg 66%
    09:00 +11°C° 0 mm 1 mps 723 mmHg 62%
    10:00 +12°C° 0 mm 1 mps 723 mmHg 58%
    11:00 +14°C° 0 mm 2 mps 723 mmHg 55%
    12:00 +15°C° 0 mm 2 mps 723 mmHg 51%
    13:00 +16°C° 0 mm 2 mps 723 mmHg 48%
    14:00 +17°C° 0 mm 2 mps 722 mmHg 44%
    15:00 +16°C° 0 mm 2 mps 722 mmHg 44%
    16:00 +16°C° 0 mm 2 mps 722 mmHg 44%
    17:00 +16°C° 0 mm 2 mps 721 mmHg 44%
    18:00 +14°C° 0 mm 2 mps 722 mmHg 51%
    19:00 +12°C° 0 mm 1 mps 722 mmHg 58%
    20:00 +11°C° 0 mm 1 mps 722 mmHg 64%
    21:00 +10°C° 0 mm 1 mps 722 mmHg 64%
    22:00 +9°C° 0 mm 1 mps 722 mmHg 64%
    23:00 +9°C° 0 mm 1 mps 722 mmHg 64%

    24 March, Sunday

    Time Temperature Precipitation Wind Pressure Humidity
    00:00 +8°C° 0 mm 1 mps 722 mmHg 67%
    01:00 +8°C° 0 mm 1 mps 722 mmHg 70%
    02:00 +7°C° 0 mm 1 mps 722 mmHg 73%
    03:00 +7°C° 0 mm 1 mps 722 mmHg 77%
    04:00 +7°C° 0 mm 1 mps 722 mmHg 81%
    05:00 +6°C° 0 mm 1 mps 721 mmHg 85%
    06:00 +6°C° 0 mm 0 mps 722 mmHg 79%
    07:00 +7°C° 0 mm 0 mps 722 mmHg 73%
    08:00 +8°C° 0 mm 0 mps 722 mmHg 68%
    09:00 +11°C° 0 mm 1 mps 722 mmHg 60%
    10:00 +12°C° 0 mm 1 mps 722 mmHg 53%
    11:00 +14°C° 0 mm 2 mps 722 mmHg 45%
    12:00 +15°C° 0 mm 2 mps 722 mmHg 44%
    13:00 +16°C° 0 mm 2 mps 721 mmHg 42%
    14:00 +17°C° 0 mm 2 mps 721 mmHg 40%
    15:00 +17°C° 0 mm 2 mps 721 mmHg 42%
    16:00 +17°C° 0 mm 2 mps 720 mmHg 44%
    17:00 +17°C° 0 mm 2 mps 720 mmHg 45%
    18:00 +15°C° 0 mm 2 mps 720 mmHg 53%
    19:00 +13°C° 0 mm 1 mps 720 mmHg 61%
    20:00 +11°C° 0 mm 1 mps 719 mmHg 68%
    21:00 +11°C° 0 mm 1 mps 719 mmHg 69%
    22:00 +10°C° 0 mm 1 mps 719 mmHg 69%
    23:00 +10°C° 0 mm 1 mps 719 mmHg 69%

    25 March, Monday

    Time Temperature Precipitation Wind Pressure Humidity
    00:00 +9°C° 0 mm 1 mps 719 mmHg 69%
    01:00 +9°C° 0 mm 1 mps 719 mmHg 69%
    02:00 +9°C° 0 mm 1 mps 718 mmHg 69%
    03:00 +8°C° 0 mm 1 mps 718 mmHg 71%
    04:00 +8°C° 0 mm 1 mps 718 mmHg 73%
    05:00 +8°C° 0 mm 1 mps 717 mmHg 75%
    06:00 +8°C° 0 mm 0 mps 717 mmHg 73%
    07:00 +9°C° 0 mm 0 mps 717 mmHg 71%
    08:00 +9°C° 0 mm 0 mps 717 mmHg 69%
    09:00 +12°C° 0 mm 1 mps 717 mmHg 64%
    10:00 +14°C° 0 mm 2 mps 717 mmHg 58%
    11:00 +16°C° 0 mm 2 mps 717 mmHg 53%
    12:00 +16°C° 0 mm 2 mps 716 mmHg 51%
    13:00 +16°C° 0 mm 2 mps 715 mmHg 50%
    14:00 +17°C° 0 mm 2 mps 715 mmHg 48%
    15:00 +17°C° 0 mm 2 mps 714 mmHg 48%
    16:00 +17°C° 0 mm 2 mps 714 mmHg 48%
    17:00 +17°C° 0 mm 2 mps 713 mmHg 49%
    18:00 +15°C° 0 mm 1 mps 713 mmHg 54%
    19:00 +14°C° 0 mm 1 mps 713 mmHg 59%
    20:00 +12°C° 0 mm 1 mps 713 mmHg 65%
    21:00 +11°C° 0 mm 1 mps 713 mmHg 66%
    22:00 +10°C° 0 mm 2 mps 712 mmHg 67%
    23:00 +9°C° 0 mm 2 mps 712 mmHg 69%

    26 March, Tuesday

    Time Temperature Precipitation Wind Pressure Humidity
    00:00 +9°C° 0 mm 2 mps 712 mmHg 69%
    01:00 +9°C° 0 mm 2 mps 712 mmHg 70%
    02:00 +8°C° 0 mm 2 mps 712 mmHg 71%
    03:00 +8°C° 0 mm 2 mps 712 mmHg 70%
    04:00 +8°C° 0 mm 2 mps 712 mmHg 69%
    05:00 +8°C° 0 mm 2 mps 712 mmHg 68%
    06:00 +8°C° 0 mm 2 mps 712 mmHg 65%
    07:00 +10°C° 0 mm 1 mps 712 mmHg 62%
    08:00 +11°C° 0 mm 1 mps 713 mmHg 60%
    09:00 +12°C° 0 mm 1 mps 713 mmHg 52%
    10:00 +14°C° 0 mm 1 mps 713 mmHg 45%
    11:00 +15°C° 0 mm 1 mps 713 mmHg 38%
    12:00 +15°C° 0 mm 2 mps 713 mmHg 35%
    13:00 +15°C° 0 mm 2 mps 713 mmHg 32%
    14:00 +14°C° 0 mm 3 mps 713 mmHg 28%
    15:00 +13°C° 0 mm 3 mps 712 mmHg 29%
    16:00 +12°C° 0 mm 3 mps 712 mmHg 29%
    17:00 +11°C° 0 mm 4 mps 712 mmHg 30%
    18:00 +10°C° 0 mm 3 mps 712 mmHg 35%
    19:00 +8°C° 0 mm 3 mps 713 mmHg 39%
    20:00 +5°C° 0 mm 3 mps 713 mmHg 44%
    21:00 +4°C° 0 mm 3 mps 713 mmHg 47%
    22:00 +3°C° 0 mm 3 mps 713 mmHg 50%
    23:00 +2°C° 0 mm 3 mps 713 mmHg 53%
    Show more